Regional Weather Roundup
Issued by NWS

Home | Current Version | Previous Version | Text Only | Print | Product List | Glossary Off
Versions: 1 2 3 4 5 6 7 8 9 10 11 12 13 14 15 16 17 18 19 20 21 22 23 24 25 26 27 28 29 30 31 32 33 34 35 36 37 38 39 40 41 42 43 44 45 46 47 48 49 50

000
ASUS43 KMKX 280011
RWRWI

WISCONSIN REGIONAL WEATHER ROUNDUP
NATIONAL WEATHER SERVICE MILWAUKEE/SULLIVAN WI
700 PM CDT MON JUL 27 2015

NOTE: "FAIR" INDICATES FEW OR NO CLOUDS BELOW 12,000 FEET WITH NO
SIGNIFICANT WEATHER AND/OR OBSTRUCTIONS TO VISIBILITY.

WIZ001-002-006>008-014>016-023>028-280100-
NORTHWEST WISCONSIN

CITY           SKY/WX    TMP DP  RH WIND       PRES   REMARKS
SUPERIOR ARPT  MOSUNNY   75  69  80 NE6       29.92R
6HR MIN TEMP:  75; 6HR MAX TEMP:  85;

ASHLAND        SUNNY     85  60  42 S5        29.94S HX  85
6HR MIN TEMP:  85; 6HR MAX TEMP:  90;

HAYWARD        SUNNY     83  63  50 SE8       29.97S HX  84
6HR MIN TEMP:  83; 6HR MAX TEMP:  86;

SIREN          MOSUNNY   83  67  58 SE10      29.94S HX  85
6HR MIN TEMP:  82; 6HR MAX TEMP:  86;

CUMBERLAND     PTSUNNY   77  64  65 SE7       29.96S
RICE LAKE      SUNNY     81  65  57 SE12      29.97S HX  82
6HR MIN TEMP:  81; 6HR MAX TEMP:  83;

CHETEK         SUNNY     82  68  61 SE8       29.96R HX  85
6HR MIN TEMP:  82; 6HR MAX TEMP:  84;

LADYSMITH      MOSUNNY   83  63  51 SE6       30.00S HX  84
6HR MIN TEMP:  83; 6HR MAX TEMP:  86;

EAU CLAIRE     MOSUNNY   84  67  56 SE13      29.94S HX  86
6HR MIN TEMP:  82; 6HR MAX TEMP:  86;

MENOMONIE      MOSUNNY   83  68  61 SE8       29.94S HX  85
6HR MIN TEMP:  82; 6HR MAX TEMP:  85;

NEW RICHMOND   SUNNY     81  69  65 SE7       29.94S HX  84
6HR MIN TEMP:  81; 6HR MAX TEMP:  85;

OSCEOLA        MOSUNNY   82  70  68 SE8       29.95F HX  85
6HR MIN TEMP:  81; 6HR MAX TEMP:  85;

$$

WIZ003>005-009-010-017-018-280100-
NORTH CENTRAL WISCONSIN

CITY           SKY/WX    TMP DP  RH WIND       PRES   REMARKS
MANITOWISH WTR SUNNY     82  60  46 S7        30.01S HX  82
6HR MIN TEMP:  82; 6HR MAX TEMP:  86;

ARBOR VITAE    SUNNY     82  60  47 S6        30.01S HX  83
6HR MIN TEMP:  82; 6HR MAX TEMP:  85;

WOODRUFF       SUNNY     82  60  47 S6        30.01S HX  83
6HR MIN TEMP:  82; 6HR MAX TEMP:  85;

RHINELANDER    SUNNY     83  59  44 S7        30.03S HX  83
6HR MIN TEMP:  83; 6HR MAX TEMP:  88;

EAGLE RIVER    SUNNY     82  55  38 S3        30.02S HX  81
6HR MIN TEMP:  82; 6HR MAX TEMP:  87;

LAND O LAKES   SUNNY     84  56  38 SW5       30.03R HX  83
6HR MIN TEMP:  84; 6HR MAX TEMP:  90;

PHILLIPS       SUNNY     82  63  52 S6        30.00S HX  83
6HR MIN TEMP:  81; 6HR MAX TEMP:  86;

TOMAHAWK       MOSUNNY   81  60  49 SE3       30.02S HX  82
6HR MIN TEMP:  81; 6HR MAX TEMP:  86;

MEDFORD        PTSUNNY   79  66  63 SE5       30.00F HX  81
6HR MIN TEMP:  78; 6HR MAX TEMP:  82;

MERRILL        NOT AVBL
$$

WIZ029-030-035-036-043>047-280100-
CENTRAL WISCONSIN

CITY           SKY/WX    TMP DP  RH WIND       PRES   REMARKS
WAUSAU         MOSUNNY   82  62  50 SE12      29.99S HX  83
6HR MIN TEMP:  82; 6HR MAX TEMP:  87;

MOSINEE        SUNNY     79  64  61 SE5       30.01S HX  81
MARSHFIELD     PTSUNNY   82  63  52 SE5       29.99F HX  83
6HR MIN TEMP:  81; 6HR MAX TEMP:  86;

STEVENS POINT  MOSUNNY   80  63  55 SE8       30.00S HX  81
6HR MIN TEMP:  80; 6HR MAX TEMP:  85;

WAUPACA        MOSUNNY   86  63  45 SE6       29.99F HX  87
6HR MIN TEMP:  86; 6HR MAX TEMP:  90;

WAUTOMA        MOSUNNY   84  59  42 SE7       29.99F HX  84
6HR MIN TEMP:  84; 6HR MAX TEMP:  90;

WISC RAPIDS    MOSUNNY   83  59  44 S8        29.99S HX  83
6HR MIN TEMP:  83; 6HR MAX TEMP:  88;

CAMP DOUGLAS   PTSUNNY   82  70  65 SE7       29.96F HX  86
$$

WIZ011>013-019>022-031-037>040-048>050-280100-
NORTHEAST WISCONSIN

CITY           SKY/WX    TMP DP  RH WIND       PRES   REMARKS
ANTIGO         MOSUNNY   79  61  54 S8        30.03F HX  80
SHAWANO        SUNNY     85  64  49 S5        30.00S HX  86
6HR MIN TEMP:  84; 6HR MAX TEMP:  89;

OCONTO         SUNNY     82  65  56 S5        29.99S HX  84
6HR MIN TEMP:  82; 6HR MAX TEMP:  88;

STURGEON BAY   SUNNY     81  61  50 S7        30.03S HX  81
GREEN BAY      SUNNY     83  63  50 SE8       30.00S HX  84
6HR MIN TEMP:  83; 6HR MAX TEMP:  87;

MANITOWOC      MOSUNNY   81  64  56 MISG      30.01F HX  82
6HR MIN TEMP:  81; 6HR MAX TEMP:  83;

APPLETON       MOSUNNY   82  59  44 SE7         N/A  HX  82
CLINTONVILLE   MOSUNNY   82  61  47 S7        29.99F HX  83
OSHKOSH        MOSUNNY   83  62  49 SE7       29.99F HX  84
6HR MIN TEMP:  83; 6HR MAX TEMP:  87;

$$

WIZ032>034-041-042-053>061-280100-
SOUTHWEST WISCONSIN

CITY           SKY/WX    TMP DP  RH WIND       PRES   REMARKS
LA CROSSE      PTSUNNY   86  68  54 SE10      29.93S HX  89
6HR MIN TEMP:  85; 6HR MAX TEMP:  87;

SPARTA         PTSUNNY   85  64  48 SE6       29.96S HX  86
6HR MIN TEMP:  83; 6HR MAX TEMP:  89;

VIROQUA        PTSUNNY   82  68  62 SE5       29.98S HX  84
6HR MIN TEMP:  81; 6HR MAX TEMP:  85;

BOSCOBEL       PTSUNNY   84  69  60 CALM      29.95S HX  88
6HR MIN TEMP:  84; 6HR MAX TEMP:  90;

PRAIRIE DU CHI CLOUDY    82  67  59 SE3       29.94S HX  85
6HR MIN TEMP:  82; 6HR MAX TEMP:  87;

PLATTEVILLE    CLOUDY    81  72  74 S3        29.98S HX  85
6HR MIN TEMP:  81; 6HR MAX TEMP:  86;

$$

WIZ056-057-062-063-064-067-068-280100-
SOUTH CENTRAL WISCONSIN

CITY           SKY/WX    TMP DP  RH WIND       PRES   REMARKS
REEDSBURG      PTSUNNY   82  70  65 CALM      29.97S HX  86
6HR MIN TEMP:  82; 6HR MAX TEMP:  88;

BARABOO/DELLS  PTSUNNY   82  64  56 E6        29.98S HX  83
6HR MIN TEMP:  82; 6HR MAX TEMP:  88;

LONE ROCK      PTSUNNY   82  69  64 SE6       29.96F HX  85
6HR MIN TEMP:  82; 6HR MAX TEMP:  87;

MINERAL POINT  PTSUNNY   81  70  69 S3        29.98F HX  84
MADISON        PTSUNNY   82  62  50 SE12      29.97F HX  83
6HR MIN TEMP:  82; 6HR MAX TEMP:  87;

MIDDLETON      PTSUNNY   83  57  41 E9        29.98F HX  82
6HR MIN TEMP:  82; 6HR MAX TEMP:  87;

WATERTOWN      MOSUNNY   80  64  56 SE3       29.99S HX  82
6HR MIN TEMP:  80; 6HR MAX TEMP:  85;

MONROE         CLOUDY    81  68  65 E6        29.98S HX  83
JANESVILLE     SUNNY     82  64  54 E9        29.98S HX  84
$$

WIZ051-052-058>065-066-070>072-280100-
SOUTHEAST WISCONSIN

CITY           SKY/WX    TMP DP  RH WIND       PRES   REMARKS
MILWAUKEE      PTSUNNY   78  63  59 E5        30.00S HX  80
6HR MIN TEMP:  78; 6HR MAX TEMP:  85;

WAUKESHA       SUNNY     79  57  47 SE12      30.01F HX  80
MILWAUKEE/TIMM SUNNY     82  55  39 E6        30.01S HX  82
RACINE         MOSUNNY   77  63  61 NE5       30.02S
6HR MIN TEMP:  77; 6HR MAX TEMP:  83;

BURLINGTON     MOSUNNY   78  61  54 E5        30.00R HX  80
6HR MIN TEMP:  78; 6HR MAX TEMP:  85;

KENOSHA        MOSUNNY   76  64  66 E7        30.01S
6HR MIN TEMP:  76; 6HR MAX TEMP:  84;

FOND DU LAC    SUNNY     82  61  48 SE8       30.00S HX  83
6HR MIN TEMP:  82; 6HR MAX TEMP:  87;

SHEBOYGAN      MOSUNNY   81  63  54 SE3       30.01F HX  82
6HR MIN TEMP:  80; 6HR MAX TEMP:  85;

WEST BEND      SUNNY     79  61  53 CALM      30.01S HX  80
JUNEAU           N/A     81  63  53 SE5       30.01S HX  82
6HR MIN TEMP:  81; 6HR MAX TEMP:  84;

$$

LSZ147-162-280100-
LAKE SUPERIOR

STATION/POSITION TIME  TEMP    WIND        PRES    WAVE
                       AIR SEA DIR/SP/G            HT/PER
                 (UTC) (F)     (DEG/KT/KT) (MB)    (FT/S)
W MID LAKE BUOY  2350   67 66   70/  6/  6 1014.0R   0
DEVILS ISLAND    0000   74     100/ 10/ 11 1013.6F
PORT WING        2200   79      40/ 10/ 13 1013.5F
SAXON HARBOR     2200   78                 1013.9
$$

LMZ867-665-643>646-280100-
LAKE MICHIGAN

STATION/POSITION TIME  TEMP    WIND        PRES    WAVE
                       AIR SEA DIR/SP/G            HT/PER
                 (UTC) (F)     (DEG/KT/KT) (MB)    (FT/S)
CHAMBERS ISLAND  2200   85     210/  3/  8 1015.6F
N MID LAKE BUOY  2350   73 71  210/  4/  4 1015.5F   0


USA.gov is the U.S. government's official web portal to all federal, state and local government web resources and services.